Regional Weather Roundup
Issued by NWS Goodland, KS

Home | Current Version | Previous Version | Graphics & Text | Print | Product List | Glossary On
Versions: 1 2 3 4 5 6 7 8 9 10 11 12 13 14 15 16 17 18 19 20 21 22 23 24 25 26 27 28 29 30 31 32 33 34 35 36 37 38 39 40 41 42 43 44 45 46 47 48 49 50
875
ASUS43 KGLD 281708
RWRGLD

GOODLAND FORECAST AREA HOURLY WEATHER ROUNDUP
NATIONAL WEATHER SERVICE GOODLAND KS
1100 AM MDT SAT MAY 28 2016

...OFFICIAL OBSERVATIONS...

CITY           SKY/WX    TMP DP  RH WIND       PRES   REMARKS
GOODLAND KS    SUNNY     66  48  52 W7        30.00R
HILL CITY KS   SUNNY     71  54  54 VRB7      29.95R
IMPERIAL NEB   SUNNY     66  49  54 NW8       29.97R
MCCOOK NEB     MOSUNNY   69  54  58 VRB6      29.94R
AKRON CO       SUNNY     62  44  51 SW7       30.02S
BURLINGTON CO  SUNNY     65  45  48 VRB3      30.03R
LIMON CO       SUNNY     63  38  39 VRB5      30.06S
$$

...UNOFFICIAL OBSERVATIONS...

CITY           SKY/WX    TMP DP  RH WIND       PRES   REMARKS
GOVE KS          N/A     70  32  24 MISG        N/A
LENORA KS        N/A     68  32  26 MISG        N/A
SHARON SPRINGS   N/A     68  56  64 SW7         N/A
TRIBUNE KS     SUNNY     68  52  56 W7        30.04
KIT CARSON CO    N/A     65  48  53 MISG        N/A
YUMA CO          N/A     66  49  54 W9          N/A
$$




USA.gov is the U.S. government's official web portal to all federal, state and local government web resources and services.